Location: Branch
(41.9943°N, 74.4702°W)
Time: 05:51:43
(UTC+00:00)

Daily predictions for brighter satellites

Satellite Brightness Start Highest point End
(mag) Time Altitude Azimuth Time Altitude Azimuth Time Altitude Azimuth
Cosmos 2221 Rocket 3.7 00:53:57 10° S 00:58:29 88° E 01:03:04 10° N
Cosmos 1110 Rocket 4.3 00:54:01 10° S 00:58:54 44° ESE 01:03:49 10° NNE
Okean 1 Rocket 4.4 00:56:31 10° NNE 01:00:09 24° ENE 01:03:44 10° SE
Cosmos 371 Rocket 4.0 00:55:48 10° SSW 01:00:35 61° WNW 01:05:27 10° NNE
STARLINK-1111 4.1 00:56:55 10° NW 01:00:59 55° NNE 01:05:03 10° ESE
CZ-2C R/B 4.5 00:55:55 10° S 01:01:14 44° W 01:06:47 10° NNW
Cosmos 1850 Rocket 4.1 00:56:52 10° NNW 01:02:14 75° ENE 01:07:33 10° SSE
GPS 2-04 Rocket1 4.1 01:00:09 10° WSW 01:02:43 20° SSW 01:05:20 10° SE
Meteor 1-13 Rocket 4.3 00:57:55 10° S 01:03:32 73° E 01:09:19 10° NNE
OE (NEXTSAT) 4.3 01:01:29 10° WSW 01:04:58 72° SSE 01:08:29 10° ENE
SL-4 R/B 2.5 01:00:43 10° SW 01:05:12 53° SE 01:09:53 10° ENE
MOS 1 Rocket 3.3 01:01:09 10° N 01:05:29 78° WNW 01:09:45 10° SSW
STARLINK-1073 4.0 01:01:51 10° NW 01:05:58 60° NNE 01:10:03 10° ESE
STARLINK-1121 3.9 01:06:48 10° NW 01:10:56 65° NE 01:15:02 10° ESE
Cosmos 1331 Rocket 4.1 01:06:31 10° S 01:11:30 52° ESE 01:16:32 10° NNE
Okean 2 Rocket 3.2 01:07:42 10° N 01:12:07 78° W 01:16:29 10° S
ARGOS 4.4 01:10:09 10° SSW 01:15:12 41° W 01:20:18 10° NNW
CZ-2C R/B 2.8 01:09:52 10° NNE 01:15:32 89° WNW 01:21:07 10° SSW
STARLINK-1106 3.8 01:11:48 10° NW 01:15:56 70° NE 01:20:01 10° ESE
Cosmos 1437 Rocket 2.6 01:13:43 10° S 01:17:30 83° E 01:21:22 10° NNE
ATLAS CENTAUR R/B 3.4 01:16:26 10° SE 01:18:05 12° ESE 01:19:43 10° E
Terra 4.1 01:18:47 10° ENE 01:19:45 11° ENE 01:20:41 10° NE
STARLINK-1112 3.7 01:16:46 10° NW 01:20:55 76° NE 01:24:48 12° ESE
Cosmos 304 Rocket 3.9 01:16:45 10° SSW 01:21:32 81° WNW 01:26:21 10° NNE
STARLINK-60 2.9 01:18:25 10° SW 01:21:35 85° NW 01:24:46 10° NE
Resurs 01 Rocket 1.7 01:17:48 10° SSE 01:22:13 68° ENE 01:26:39 10° N
Cosmos 1300 Rocket 3.9 01:17:51 10° NNW 01:22:16 69° W 01:26:39 10° S
Intercosmos 24 3.9 01:18:42 10° N 01:22:20 89° W 01:26:47 10° S
USA 245 4.3 01:21:07 11° ESE 01:22:36 15° ENE 01:24:05 10° NE
SPOT 3 Rocket 3.7 01:17:48 10° S 01:22:56 77° WSW 01:28:08 10° NNW
Cosmos 1943 Rocket 2.5 01:18:21 10° S 01:23:35 45° ESE 01:28:53 10° NE
CENTAUR R/B 4.1 01:16:23 10° NNW 01:23:41 38° NE 01:31:38 10° ESE
STARLINK-1128 3.6 01:21:44 10° NW 01:25:54 83° NE 01:29:34 13° SE
Abrixas rocket 2.5 01:23:34 10° WNW 01:26:26 46° SSW 01:28:41 14° SE
Cosmos 2151 Rocket 3.8 01:23:22 10° N 01:27:55 77° W 01:32:25 10° S
deb Kosmos-1763 4.0 01:25:14 10° NNW 01:28:51 89° WSW 01:32:15 11° SSE
H-2A R/B 4.2 01:26:00 10° SW 01:30:03 23° W 01:34:12 10° NW
STARLINK-1113 3.6 01:26:44 10° NW 01:30:54 90° E 01:34:22 14° SE
NOSS 2-2 (D) 3.7 01:28:32 10° SW 01:32:04 61° NW 01:35:53 10° NNE
STARLINK-1119 3.6 01:31:42 10° NW 01:35:51 83° SW 01:39:08 16° SE
Resurs 1-3 4.2 01:31:46 10° S 01:36:04 57° W 01:40:23 10° NNW
Nadezhda 4 Rocket 4.0 01:32:06 10° S 01:38:06 63° E 01:44:09 10° NNE
Cosmos 1766 4.3 01:35:40 10° NNE 01:39:15 31° ENE 01:41:45 16° SE
Aureole 2 4.2 01:37:34 10° NNW 01:40:32 71° WSW 01:42:50 15° S
STARLINK-1114 3.6 01:36:42 10° NW 01:40:51 76° SW 01:43:56 17° SE
BREEZE-M DEB 1.9 01:38:56 10° SW 01:41:04 76° SE 01:44:50 10° ENE
STARLINK-1444 2.3 01:39:38 10° WSW 01:41:38 60° NW 01:43:40 10° NE
STARLINK-1452 2.4 01:40:15 10° WSW 01:42:15 59° NW 01:44:16 10° NE
Cosmos 1674 Rocket 3.9 01:38:47 10° SSW 01:43:08 70° W 01:47:34 10° N
Cosmos 1378 Rocket 3.5 01:38:53 10° S 01:43:16 89° E 01:47:39 10° N
STARLINK-1450 2.4 01:41:32 10° WSW 01:43:29 55° NW 01:45:26 10° NE
STARLINK-1436 (VISORSAT) 2.4 01:41:35 10° WSW 01:43:33 55° NW 01:45:31 10° NE
STARLINK-1392 2.4 01:41:40 10° WSW 01:43:37 54° NW 01:45:34 10° NE
STARLINK-1398 2.5 01:41:38 10° WSW 01:43:37 55° NW 01:45:37 10° NE
STARLINK-1414 2.4 01:41:39 10° WSW 01:43:37 55° NW 01:45:36 10° NE
STARLINK-1399 2.4 01:41:41 10° WSW 01:43:37 54° NW 01:45:34 10° NE
STARLINK-1415 2.4 01:41:41 10° WSW 01:43:38 54° NW 01:45:35 10° NE
STARLINK-1416 2.4 01:41:40 10° WSW 01:43:38 55° NW 01:45:37 10° NE
STARLINK-1394 2.4 01:41:42 10° WSW 01:43:38 54° NW 01:45:35 10° NE
STARLINK-1395 2.4 01:41:42 10° WSW 01:43:38 54° NW 01:45:36 10° NE
STARLINK-1393 2.4 01:41:42 10° WSW 01:43:39 54° NW 01:45:36 10° NE
STARLINK-1396 2.4 01:41:43 10° WSW 01:43:39 54° NW 01:45:36 10° NE
STARLINK-1408 2.4 01:41:41 10° WSW 01:43:40 55° NW 01:45:38 10° NE
STARLINK-1397 2.4 01:41:43 10° WSW 01:43:40 54° NW 01:45:36 10° NE
STARLINK-1419 2.5 01:41:42 10° WSW 01:43:40 55° NW 01:45:39 10° NE
STARLINK-1401 2.4 01:41:43 10° WSW 01:43:40 54° NNW 01:45:37 10° NE
STARLINK-1404 2.4 01:41:44 10° WSW 01:43:40 54° NW 01:45:37 10° NE
STARLINK-1453 2.4 01:41:44 10° WSW 01:43:40 54° NW 01:45:38 10° NE
STARLINK-1402 2.4 01:41:45 10° WSW 01:43:42 54° NW 01:45:39 10° NE
STARLINK-1417 2.4 01:41:45 10° WSW 01:43:42 54° NW 01:45:39 10° NE
STARLINK-1413 2.4 01:41:46 10° WSW 01:43:42 54° NW 01:45:40 10° NE
STARLINK-1420 2.5 01:41:44 10° WSW 01:43:42 55° NW 01:45:42 10° NE
STARLINK-1406 2.4 01:41:47 10° WSW 01:43:43 54° NW 01:45:40 10° NE
STARLINK-1422 2.5 01:41:46 10° WSW 01:43:44 55° NW 01:45:43 10° NE
STARLINK-1460 2.5 01:41:46 10° WSW 01:43:44 55° NW 01:45:44 10° NE
STARLINK-1440 2.4 01:41:48 10° WSW 01:43:45 54° NW 01:45:41 10° NE
STARLINK-1445 2.4 01:41:49 10° WSW 01:43:45 54° NW 01:45:42 10° NE
STARLINK-1458 2.5 01:41:47 10° WSW 01:43:45 55° NW 01:45:44 10° NE
STARLINK-1443 2.4 01:41:50 10° WSW 01:43:47 54° NW 01:45:43 10° NE
STARLINK-1454 2.4 01:41:50 10° WSW 01:43:47 54° NW 01:45:43 10° NE
STARLINK-1457 2.4 01:41:51 10° WSW 01:43:48 54° NW 01:45:44 10° NE
STARLINK-1456 2.5 01:41:51 10° WSW 01:43:48 54° NW 01:45:44 10° NE
STARLINK-1451 2.5 01:41:52 10° WSW 01:43:48 54° NW 01:45:45 10° NE
STARLINK-1437 2.5 01:41:50 10° WSW 01:43:48 55° NW 01:45:47 10° NE
STARLINK-1446 2.5 01:41:50 10° WSW 01:43:49 55° NW 01:45:48 10° NE
STARLINK-1442 2.5 01:41:53 10° WSW 01:43:49 54° NW 01:45:46 10° NE
STARLINK-1423 2.5 01:41:53 10° WSW 01:43:51 55° NW 01:45:51 10° NE
STARLINK-1447 2.5 01:41:53 10° WSW 01:43:51 55° NW 01:45:51 10° NE
STARLINK-1405 2.5 01:41:55 10° WSW 01:43:51 54° NW 01:45:48 10° NE
STARLINK-1455 2.5 01:41:53 10° WSW 01:43:52 55° NW 01:45:52 10° NE
STARLINK-1421 2.5 01:41:55 10° WSW 01:43:52 54° NW 01:45:48 10° NE
STARLINK-1400 2.5 01:41:56 10° WSW 01:43:52 54° NW 01:45:50 10° NE
STARLINK-1407 2.5 01:41:56 10° WSW 01:43:52 54° NW 01:45:49 10° NE
STARLINK-1410 2.5 01:41:56 10° WSW 01:43:52 54° NW 01:45:50 10° NE
STARLINK-1441 2.5 01:41:54 10° WSW 01:43:53 55° NW 01:45:51 10° NE
STARLINK-1439 2.5 01:41:57 10° WSW 01:43:53 54° NW 01:45:50 10° NE
STARLINK-1409 2.5 01:41:58 10° WSW 01:43:54 54° NW 01:45:50 10° NE
STARLINK-1448 2.5 01:41:55 10° WSW 01:43:54 55° NW 01:45:53 10° NE
STARLINK-1449 2.5 01:41:55 10° WSW 01:43:54 55° NW 01:45:53 10° NE
STARLINK-1351 2.5 01:41:59 10° WSW 01:43:55 54° NW 01:45:51 10° NE
STARLINK-1370 2.5 01:41:59 10° WSW 01:43:55 54° NW 01:45:51 10° NE
STARLINK-1418 2.5 01:41:59 10° WSW 01:43:55 54° NW 01:45:51 10° NE
STARLINK-1434 2.5 01:41:59 10° WSW 01:43:55 54° NW 01:45:52 10° NE
STARLINK-1403 2.5 01:42:00 10° WSW 01:43:56 54° NW 01:45:52 10° NE
STARLINK-1433 2.5 01:42:01 10° WSW 01:43:57 54° NW 01:45:54 10° NE
STARLINK-1411 2.5 01:42:02 10° WSW 01:43:58 54° NW 01:45:55 10° NE
STARLINK-1438 2.5 01:42:03 10° WSW 01:43:59 54° NW 01:45:55 10° NE
STARLINK-1412 2.5 01:42:04 10° WSW 01:44:02 54° NW 01:46:01 10° NE
STARLINK-1130 (DARKSAT) 3.7 01:41:40 10° WNW 01:45:48 70° SW 01:48:42 19° SE
STARLINK-1084 3.8 01:46:40 10° WNW 01:50:46 63° SW 01:53:29 20° SE
Cosmos 2082 Rocket 3.7 01:46:42 10° NW 01:51:40 31° WSW 01:56:34 10° SSW
NOSS 3-4 (A) 3.9 01:46:29 10° S 01:51:48 36° ESE 01:57:19 10° NE
NOSS 3-4 (C) 3.9 01:46:36 10° S 01:51:54 35° ESE 01:57:25 10° NE
STARLINK-29 2.9 01:50:28 10° SW 01:53:42 89° ENE 01:56:55 10° NE
STARLINK-1098 3.9 01:51:39 10° WNW 01:55:44 57° SW 01:58:15 21° SSE
Cosmos 2369 Rocket 2.2 01:50:19 10° S 01:55:52 60° ESE 02:01:26 10° NNE
SL-8 R/B 3.8 01:51:12 10° WNW 01:55:57 65° SSW 01:59:08 21° SE
Cosmos 292 Rocket 4.2 01:52:29 13° S 01:56:23 41° ESE 02:00:57 10° NE
MetOp-B 4.1 01:53:24 14° SSE 01:58:07 88° WSW 02:03:31 10° NNW
STARLINK-1123 4.0 01:56:39 10° WNW 02:00:41 52° SW 02:03:03 23° SSE
ERS-1 Rocket 3.6 01:59:13 19° SE 02:02:23 43° ENE 02:07:07 10° N
STARLINK-1097 4.2 02:01:39 10° WNW 02:05:39 47° SW 02:07:49 24° SSE
Cosmos 1378 3.2 02:02:56 11° S 02:06:25 79° W 02:10:08 10° N
Cosmos 1975 Rocket 3.2 02:05:35 20° SSE 02:08:26 55° E 02:12:44 10° NNE
STARLINK-1339 4.4 02:08:44 27° SE 02:08:44 27° SE 02:12:06 10° ENE
Lacrosse 5 4.5 02:09:02 10° WSW 02:09:26 10° WSW 02:09:49 10° WSW
STARLINK-1099 4.3 02:06:40 10° WNW 02:10:36 43° SW 02:12:36 24° SSE
Landsat 7 3.8 02:08:12 20° SSE 02:11:30 87° ENE 02:16:17 10° NNW
H-2A ROCKET BODY 4.5 02:05:58 10° SSW 02:12:01 31° SE 02:33:48 10° E
Cosmos 1805 3.2 02:08:43 10° N 02:12:40 87° W 02:14:57 24° S
STARLINK-1377 4.3 02:12:41 29° SE 02:12:52 29° SE 02:16:19 10° ENE
Cosmos 968 Rocket 4.2 02:10:19 10° N 02:15:10 40° ENE 02:17:50 23° ESE
STARLINK-1104 4.4 02:11:42 10° WNW 02:15:34 39° SW 02:17:24 25° S
STARLINK-1353 4.2 02:16:36 31° SE 02:16:59 32° SE 02:20:32 10° ENE
Cosmos 1470 4.0 02:14:38 10° NNE 02:17:54 25° ENE 02:18:54 23° E
ATLAS 2AS CENTAUR R/B 3.0 02:11:38 10° SSW 02:19:26 66° ESE 02:27:20 10° NE
STARLINK-1375 4.0 02:20:37 33° SSE 02:21:10 34° SE 02:24:46 10° ENE
NOSS 3-2 (A) 4.1 02:15:23 10° NW 02:23:04 80° WSW 02:28:54 23° SSE
SAR-Lupe-2 4.0 02:19:46 10° N 02:23:20 60° WNW 02:26:18 14° SSW
STARLINK-1364 4.5 02:26:10 22° ENE 02:26:10 22° ENE 02:27:30 10° ENE
STARLINK-1376 4.5 02:26:31 22° ENE 02:26:31 22° ENE 02:27:50 10° ENE
STARLINK-1360 4.5 02:26:49 22° ENE 02:26:49 22° ENE 02:28:11 10° ENE
STARLINK-1350 3.9 02:24:35 34° SSE 02:25:18 37° SE 02:28:58 10° ENE
STARLINK-1361 4.5 02:27:11 22° ENE 02:27:11 22° ENE 02:28:31 10° ENE
STARLINK-1367 4.4 02:27:24 23° ENE 02:27:24 23° ENE 02:28:50 10° ENE
STARLINK-1366 4.4 02:27:48 23° ENE 02:27:48 23° ENE 02:29:12 10° ENE
Cosmos 1733 3.1 02:22:43 10° N 02:26:32 90° E 02:28:05 34° S
Cosmos 1842 3.1 02:25:34 29° S 02:27:29 79° E 02:31:23 10° N
Cosmos 1092 Rocket 4.0 02:22:30 12° S 02:28:12 85° W 02:34:24 10° N
STARLINK-52 4.0 02:26:02 10° WSW 02:29:09 48° NNW 02:32:17 10° NE
STARLINK-1352 3.8 02:28:37 35° S 02:29:31 41° SE 02:33:15 10° ENE
RESURS DK-1 4.4 02:32:36 14° E 02:32:36 14° E 02:33:55 10° ENE
STARLINK-1368 3.7 02:32:40 35° S 02:33:45 44° SE 02:37:31 10° ENE
COSMOS 2455 3.1 02:30:26 23° S 02:33:52 46° ESE 02:39:35 10° NE
Milstar 3 Cent rocket 4.4 02:29:12 10° SW 02:37:12 38° SSE 02:52:53 10° E
USA 238 DEB 4.0 02:30:21 10° NW 02:37:32 66° WSW 02:42:03 26° SSE
USA 238 4.0 02:30:27 10° NW 02:37:39 67° WSW 02:42:09 26° SSE
STARLINK-1369 3.6 02:36:43 34° S 02:37:59 48° SE 02:41:48 10° ENE
Cosmos 1953 4.0 02:35:29 10° NNE 02:38:29 20° ENE 02:39:04 19° E
Spot 2 Rocket 4.3 02:35:31 17° SSW 02:39:04 44° W 02:43:54 10° NNW
Cosmos 1455 Rocket 2.9 02:35:08 10° N 02:39:29 79° E 02:41:04 38° SSE
Cosmos 1428 Rocket 4.4 02:35:56 21° S 02:40:21 81° E 02:46:39 10° N
Meteor 1-22 Rocket 4.4 02:35:57 10° NNW 02:41:42 68° W 02:45:04 24° S
STARLINK-1372 3.5 02:40:46 33° SSW 02:42:13 53° SE 02:46:05 10° ENE
Cosmos 1271 Rocket 2.9 02:41:37 46° SE 02:42:23 55° E 02:46:16 10° NNE
FALCON 9 DEB 3.7 02:41:40 10° WSW 02:45:02 58° NW 02:48:27 10° NE
SL-4 R/B 3.7 02:40:35 10° W 02:45:05 42° NNW 02:49:42 10° NE
STARLINK-1378 3.4 02:44:47 31° SSW 02:46:27 58° SE 02:50:21 10° ENE
CARTOSAT-1 3.6 02:45:52 35° S 02:47:34 72° WSW 02:51:54 10° NNW
SPOT 5 3.1 02:46:23 31° S 02:48:58 82° WSW 02:54:22 10° NNW
SL-27 R/B 3.2 02:46:36 10° NNW 02:49:59 43° WSW 02:50:47 36° SW
STARLINK-1235 3.1 02:47:12 10° NW 02:50:38 76° NE 02:51:02 64° E
STARLINK-1379 3.4 02:48:53 28° SSW 02:50:45 63° SE 02:54:41 10° ENE
Cosmos 1707 2.8 02:53:41 51° ESE 02:54:03 53° E 02:57:50 10° NNE
COSMOS 2487 3.6 02:51:00 10° N 02:54:04 29° ENE 02:54:15 29° ENE
STARLINK-1329 3.3 02:52:04 27° SW 02:54:07 67° SE 02:58:04 10° ENE
Cosmos 1503 Rocket 4.1 02:50:33 10° NNW 02:55:52 67° ENE 02:57:51 39° SE
ATLAS CENTAUR R/B 1.6 02:52:16 11° SW 02:56:31 73° WNW 03:00:42 10° NNE
Terra 1.7 02:55:01 41° SSE 02:56:42 87° E 03:01:30 10° NNW
Cosmos 1758 3.4 02:52:56 10° N 02:57:00 66° E 02:57:44 53° SE
STARLINK-1362 3.3 02:56:03 23° SW 02:58:28 74° SE 03:02:27 10° NE
Resurs 01 Rocket 4.3 02:57:43 10° WSW 02:59:08 11° W 03:00:34 10° WNW
STARLINK-1373 3.3 03:00:24 23° SW 03:02:50 80° SE 03:06:49 10° NE
Cosmos 1242 Rocket 3.5 03:04:39 30° SW 03:06:01 44° WNW 03:09:35 10° N
Cosmos 1174 3.5 03:06:45 58° WSW 03:07:11 68° WNW 03:10:49 10° NNE
STARLINK-1390 3.4 03:04:34 20° SW 03:07:13 86° SE 03:11:13 10° NE
Cosmos 2026 Rocket 4.5 03:02:16 16° SSW 03:07:14 58° W 03:13:32 10° N
Cosmos 1943 Rocket 4.1 03:02:47 10° WSW 03:07:30 28° NW 03:12:17 10° N
S3M 4.1 03:01:59 10° N 03:08:07 62° E 03:10:30 38° SE
Cosmos 1536 Rocket 3.4 03:07:37 56° SSE 03:08:24 71° E 03:12:45 10° NNE
SeaSat 1 3.8 03:07:04 10° NE 03:10:22 23° E 03:10:22 23° E
STARLINK-1365 3.4 03:07:35 11° SW 03:11:23 86° NW 03:15:26 10° NE
STARLINK-1212 3.5 03:08:34 10° NW 03:11:05 54° WNW 03:11:05 54° WNW
STARLINK-1105 3.5 03:09:05 10° NW 03:11:35 53° WNW 03:11:35 53° WNW
MTI 4.0 03:09:10 10° N 03:12:10 65° WNW 03:12:10 65° WNW
STARLINK-1247 3.5 03:10:02 10° NW 03:12:31 52° WNW 03:12:31 52° WNW
STARLINK-1227 3.6 03:10:34 10° NW 03:13:00 51° WNW 03:13:00 51° WNW
STARLINK-1226 3.6 03:11:33 10° NW 03:13:58 49° WNW 03:13:58 49° WNW
CENTAUR R/B 3.3 03:06:52 10° NW 03:15:03 69° WSW 03:19:26 33° SSE
Cosmos 1833 4.2 03:09:41 10° NNW 03:15:19 76° WSW 03:17:12 43° S
STARLINK-1215 3.7 03:12:33 10° NW 03:14:58 48° WNW 03:14:58 48° WNW
Cosmos 2084 3.4 03:15:32 62° SSE 03:15:54 65° ESE 03:20:19 10° NE
Cosmos 1544 Rocket 4.0 03:12:35 10° NNW 03:16:50 55° W 03:17:56 42° SW
STARLINK-1217 3.8 03:14:34 10° NW 03:16:55 45° WNW 03:16:55 45° WNW
Meteor 2-8 Rocket 4.4 03:11:35 10° N 03:17:45 75° E 03:19:58 42° SSE
Cosmos 1354 Rocket 3.9 03:12:31 10° NNW 03:17:52 89° WSW 03:19:23 49° SSE
STARLINK-1229 3.8 03:15:32 10° WNW 03:17:49 43° WNW 03:17:49 43° WNW
Cosmos 1553 Rocket 3.9 03:12:48 10° N 03:19:03 81° W 03:21:34 38° S
STARLINK-1270 3.9 03:16:34 10° WNW 03:18:52 43° WNW 03:18:52 43° WNW
STARLINK-1189 4.0 03:18:43 10° WNW 03:20:56 40° WNW 03:20:56 40° WNW
ATLAS 3B R/B 2.8 03:15:47 10° NNW 03:22:36 72° NE 03:25:46 35° SE
STARLINK-1188 4.1 03:19:47 10° WNW 03:21:59 39° WNW 03:21:59 39° WNW
STARLINK-1205 4.5 03:20:53 10° NW 03:24:53 45° NNE 03:26:06 34° ENE
STARLINK-1191 4.2 03:22:20 10° WNW 03:24:22 35° WNW 03:24:22 35° WNW
STARLINK-1221 4.3 03:23:27 10° WNW 03:25:28 34° WNW 03:25:28 34° WNW
STARLINK-1338 3.8 03:23:32 14° WSW 03:26:46 66° NW 03:30:41 10° NE
STARLINK-1209 4.4 03:23:52 10° WNW 03:26:15 33° W 03:26:15 33° W
STARLINK-1222 4.4 03:24:31 10° WNW 03:26:28 33° WNW 03:26:28 33° WNW
Cosmos 1656 Rocket 4.5 03:22:48 11° SW 03:28:01 50° WNW 03:33:26 10° NNE
STARLINK-1214 4.4 03:25:42 10° WNW 03:27:39 32° WNW 03:27:39 32° WNW
STARLINK-1218 4.4 03:25:52 10° NW 03:29:54 48° NNE 03:30:55 39° ENE
Meteor 1-16 Rocket 4.1 03:27:23 10° N 03:32:49 68° E 03:33:59 52° SE
STARLINK-1254 4.2 03:30:50 10° NW 03:34:53 52° NNE 03:35:41 44° ENE
STARLINK-1371 4.0 03:31:19 12° WSW 03:34:56 58° NW 03:38:50 10° NE
Cosmos 1908 4.3 03:31:55 10° N 03:35:07 34° ENE 03:35:07 34° ENE
STARLINK-1341 4.2 03:35:17 10° WSW 03:39:04 54° NNW 03:42:57 10° NE
Cosmos 2266 Rocket 3.8 03:37:44 47° S 03:39:37 82° E 03:45:41 10° N
STARLINK-1231 4.0 03:35:47 10° NW 03:39:52 56° NNE 03:40:27 51° ENE
Cosmos 2369 Rocket 4.4 03:35:55 10° WSW 03:40:18 23° NW 03:44:42 10° N
Spot 4 4.0 03:39:44 52° ESE 03:40:31 59° ENE 03:45:17 10° N
ATLAS 3B CENTAUR R/B 4.1 03:31:59 10° WSW 03:41:54 26° SSW 03:42:25 26° SSW
Cosmos 1655 Rocket 4.1 03:40:04 36° SSW 03:42:45 70° W 03:49:02 10° N
Cosmos 1606 Rocket 4.2 03:38:45 10° N 03:42:54 42° ENE 03:42:59 42° E
STARLINK-1374 4.3 03:39:21 10° WSW 03:43:11 51° NNW 03:47:03 10° NE
BREEZE-M DEB (TANK) 3.9 03:36:38 10° WNW 03:44:08 38° SW 03:44:45 37° SW
STARLINK-1232 3.9 03:40:47 10° NW 03:44:53 61° NNE 03:45:16 58° ENE
Cosmos 2227 Rocket 4.1 03:41:10 10° N 03:45:30 22° NE 03:48:40 14° E
ALOS 2 3.7 03:45:55 31° E 03:46:21 32° ENE 03:50:14 10° N
Cosmos 1025 Rocket 4.2 03:45:12 29° WSW 03:46:29 36° WNW 03:50:28 10° N
STARLINK-1339 4.4 03:43:33 10° WSW 03:47:22 47° NNW 03:51:12 10° NE
Cosmos 2098 Rocket 4.4 03:47:16 43° SSE 03:49:50 70° E 03:57:14 10° NNE
STARLINK-1208 3.8 03:45:43 10° NW 03:49:51 66° NE 03:50:01 65° NE
Cosmos 2292 Rocket 3.9 03:54:24 45° NNW 03:54:24 45° NNW 03:56:41 10° N
STARLINK-1271 3.7 03:50:43 10° NW 03:54:49 72° NNE 03:54:49 72° NNE
Cosmos 1674 3.0 03:55:48 61° NNE 03:55:48 61° NNE 03:59:01 10° N
Cosmos 1726 2.8 03:51:57 10° NNW 03:55:12 48° WNW 03:55:12 48° WNW
Cosmos 1867 4.3 03:52:01 10° NW 03:57:00 37° WSW 03:57:37 36° SW
BREEZE-M R/B 4.0 03:47:43 10° SW 03:58:32 86° SE 04:03:19 10° ENE
STARLINK-1154 3.7 03:55:40 10° NW 03:59:34 74° N 03:59:34 74° N
Meteor 2-5 Rocket 3.8 03:59:11 54° SE 03:59:56 59° E 04:05:29 10° NNE
Cosmos 1340 Rocket 3.4 03:56:46 10° NNW 04:00:36 49° W 04:00:36 49° W
ATLAS 5 CENTAUR R/B 3.3 03:58:21 10° WSW 04:03:03 31° NW 04:05:20 10° NNE
Cosmos 883 Rocket 4.4 03:58:28 10° N 04:04:37 81° W 04:06:09 53° S
STARLINK-1197 3.8 04:00:38 10° NW 04:04:22 70° NW 04:04:22 70° NW
Cosmos 921 Rocket 3.2 04:08:22 62° ENE 04:08:22 62° ENE 04:12:14 10° NNE
RESURS DK-1 3.2 04:08:27 41° W 04:09:04 45° WNW 04:13:03 10° NNE
Cosmos 2228 3.0 04:04:54 10° N 04:08:54 77° NNE 04:08:54 77° NNE
Cosmos 220 Rocket 4.2 04:09:58 64° ENE 04:09:58 64° ENE 04:13:59 10° NNE
STARLINK-1198 3.9 04:05:38 10° NW 04:09:09 63° NW 04:09:09 63° NW
ATLAS 2AS CENTAUR R/B 4.4 04:03:41 10° WSW 04:10:58 37° NW 04:18:12 10° NNE
Lacrosse 4 Rocket 3.9 04:11:08 10° N 04:13:42 15° NE 04:15:47 11° ENE
CZ-4C R/B 3.1 04:15:02 30° E 04:15:02 30° E 04:19:02 10° NE
STARLINK-1199 4.1 04:10:36 10° NW 04:13:55 55° WNW 04:13:55 55° WNW
Cosmos 1953 3.8 04:11:27 10° NNW 04:14:45 28° W 04:14:45 28° W
Cosmos 1777 Rocket 3.9 04:11:33 10° NNW 04:16:47 74° WSW 04:17:17 68° SSW
Okean 1-7 Rocket 3.8 04:18:13 59° ENE 04:18:13 59° ENE 04:22:25 10° NNE
STARLINK-1210 4.3 04:15:35 10° NW 04:18:42 49° WNW 04:18:42 49° WNW
COSMOS 2455 4.4 04:14:36 10° WSW 04:19:58 33° NW 04:25:21 10° NNE
Thor Agena Rocket 4.4 04:16:26 10° N 04:21:27 45° WNW 04:23:12 33° WSW
Nimbus 7 Rocket 4.4 04:17:14 10° NNE 04:23:19 89° WNW 04:24:46 55° SSW
STARLINK-1219 4.5 04:20:36 10° WNW 04:23:30 43° WNW 04:23:30 43° WNW
Cosmos 1626 3.1 04:26:25 44° NNE 04:26:25 44° NNE 04:29:06 10° NNE
Cosmos 1892 Rocket 3.5 04:25:50 79° N 04:25:50 79° N 04:29:56 10° N
Cosmos 1726 Rocket 3.6 04:22:09 10° N 04:26:11 74° NW 04:26:11 74° NW
Helios 1A 3.7 04:28:11 45° ENE 04:28:11 45° ENE 04:32:04 10° N
Meteor 2-14 Rocket 4.4 04:27:23 59° SSE 04:28:33 75° E 04:34:41 10° NNE
Cosmos 1980 Rocket 4.1 04:30:49 15° E 04:30:49 15° E 04:33:49 10° ENE
Meteor 2-21 Rocket 4.5 04:30:31 55° SE 04:31:39 67° E 04:37:48 10° NNE
SJ 16-02 2.5 04:31:25 10° N 04:35:27 33° ENE 04:35:53 33° ENE
ATLAS CENTAUR R/B 4.5 04:34:41 10° WNW 04:36:05 11° NW 04:37:27 10° NNW
Timation 2 Rocket 4.0 04:33:19 10° NNW 04:39:23 58° WSW 04:40:11 53° SW
Meteor 1-24 Rocket 3.5 04:43:15 66° SW 04:43:57 78° W 04:49:29 10° N
STARLINK-1241 4.4 04:42:51 10° NW 04:46:52 47° NNE 04:47:20 45° NE
SeaSat 1 3.2 04:44:00 10° NNE 04:48:43 46° WNW 04:50:08 36° W
STARLINK-1239 4.3 04:47:48 10° NW 04:51:52 51° NNE 04:52:07 50° NE
Cosmos 2297 Rocket 2.2 04:46:43 10° NNW 04:52:24 76° ENE 04:53:23 60° SE
Cosmos 468 Rocket 4.1 04:52:56 58° ESE 04:52:56 58° ESE 04:57:57 10° NNE
Cosmos 1656 3.5 04:52:29 70° S 04:53:08 83° ESE 04:58:46 10° NNE
Cosmos 2219 3.0 04:49:21 10° NNW 04:55:02 84° WSW 04:55:41 70° S
USA 215 3.9 04:48:45 10° ESE 04:55:05 54° NNE 05:01:26 10° NW
STARLINK-1240 4.2 04:52:45 10° NW 04:56:50 55° NNE 04:56:53 54° NE
YAOGAN 11 4.1 05:00:50 75° NNE 05:00:50 75° NNE 05:04:51 10° N
Cosmos 1356 Rocket 3.7 04:56:25 10° N 05:00:14 69° NNE 05:00:14 69° NNE
STARLINK-1216 4.1 04:57:44 10° NW 05:01:41 58° NNE 05:01:41 58° NNE
Cosmos 1937 Rocket 4.4 04:58:58 10° N 05:03:58 42° ENE 05:05:31 33° ESE
SL-14 R/B 4.4 05:06:40 35° NW 05:06:40 35° NW 05:09:41 10° N
Cosmos 2082 4.3 05:00:38 10° NNW 05:06:07 50° ENE 05:08:00 36° ESE
STARLINK-1237 4.1 05:02:41 10° NW 05:06:26 60° N 05:06:26 60° N
Meteor 2-1 Rocket 4.4 05:02:55 10° N 05:08:25 61° ENE 05:09:30 51° SE
Cosmos 1626 Rocket 3.6 05:09:25 74° N 05:09:25 74° N 05:13:26 10° N
Landsat 4 4.5 05:06:45 10° N 05:09:39 49° NNW 05:09:39 49° NNW
Cosmos 1898 Rocket 3.7 05:06:17 10° NNW 05:11:37 67° ENE 05:12:27 57° ESE
STARLINK-1202 4.1 05:07:40 10° NW 05:11:14 59° NNW 05:11:14 59° NNW
ATLAS 3B R/B 4.0 05:07:29 10° WNW 05:12:43 23° WSW 05:13:00 23° WSW
Nadezhda 1 Rocket 3.9 05:07:01 10° N 05:13:18 83° E 05:14:46 56° SSE
STARLINK-1203 4.1 05:11:19 10° NW 05:14:48 58° NNW 05:14:48 58° NNW
Cosmos 2278 4.2 05:15:20 44° ESE 05:15:45 44° ESE 05:21:07 10° NE
Cosmos 1697 Rocket 2.6 05:15:48 65° SSE 05:16:24 71° ESE 05:22:03 10° NNE
Cosmos 2058 Rocket 4.3 05:16:19 10° NNW 05:19:55 32° W 05:19:55 32° W
STARLINK-1246 4.2 05:17:37 10° NW 05:20:48 51° NW 05:20:48 51° NW
ALOS 2 4.3 05:23:18 23° W 05:23:18 23° W 05:26:14 10° NW
Cosmos 990 Rocket 3.8 05:18:31 10° NNW 05:23:48 89° ENE 05:24:19 74° SSE
Cosmos 1300 4.4 05:22:27 10° NNW 05:24:49 26° WNW 05:24:49 26° WNW
STARLINK-1224 4.4 05:22:36 10° NW 05:25:35 46° NW 05:25:35 46° NW
ATLAS CENTAUR R/B 3.3 05:25:01 10° NW 05:26:05 25° NW 05:26:05 25° NW
EO 1 Delta rocket 4.5 05:24:00 10° N 05:28:52 44° WNW 05:29:25 42° W
Cosmos 2227 Rocket 2.2 05:24:23 10° NNW 05:30:01 63° WSW 05:30:28 61° SW
Resurs 1-4 Rocket 3.9 05:26:48 10° NE 05:30:33 19° E 05:31:57 17° ESE
Helios 1B rocket 2.5 05:30:45 10° N 05:34:34 73° NNW 05:34:34 73° NNW
Cosmos 841 Rocket 3.5 05:37:57 63° SE 05:38:26 67° ESE 05:43:37 10° NNE
Cosmos 1812 Rocket 3.6 05:34:21 10° NNW 05:38:32 71° WNW 05:38:32 71° WNW
Cosmos 1570 Rocket 3.9 05:40:23 69° S 05:41:00 81° ESE 05:46:18 10° NNE
Uosat 12 SS-18 rocket 4.4 05:38:38 10° NNW 05:42:55 62° NE 05:43:41 52° E
Cosmos 1825 Rocket 3.7 05:43:16 61° E 05:43:16 61° E 05:47:30 10° NNE
SL-16 R/B 4.0 05:42:15 16° ESE 05:43:41 18° E 05:47:22 10° ENE
Cosmos 1763 Rocket 3.7 05:45:57 49° W 05:46:42 54° WNW 05:51:41 10° N
Cosmos 1602 Rocket 4.2 05:46:55 44° WNW 05:46:55 44° WNW 05:50:56 10° N
PSLV R/B 3.8 05:43:52 10° N 05:48:12 58° WNW 05:48:15 57° WNW
Meteor 1-21 Rocket 4.2 05:47:50 57° SW 05:48:54 73° W 05:54:42 10° N
Alouette 2 Rocket 3.4 05:46:34 10° N 05:51:03 74° ENE 05:51:03 74° ENE
Cosmos 1745 Rocket 4.5 05:50:15 39° WSW 05:51:47 46° WNW 05:57:41 10° N
Cosmos 1328 4.0 05:52:58 66° ENE 05:52:58 66° ENE 05:56:38 10° NNE
Lacrosse 4 Rocket 1.9 05:48:37 10° NW 05:52:03 51° WNW 05:52:03 51° WNW
FALCON 9 R/B 3.1 05:53:12 44° S 05:53:30 44° S 06:07:46 10° ESE
STARLINK-1307 4.1 05:57:11 49° NE 05:57:11 49° NE 05:59:57 10° NE
BREEZE-M DEB (TANK) 3.9 05:54:39 10° WNW 05:57:06 20° NNW 05:58:58 10° NE
STARLINK-1317 3.8 05:58:50 63° NNE 05:58:50 63° NNE 06:02:10 10° NE
BREEZE-M DEB (TANK) 4.4 05:55:04 10° WNW 06:02:44 25° SSE 06:07:44 10° SE
Cosmos 2208 Rocket 3.9 05:58:06 64° SSW 05:58:57 85° WNW 06:04:20 10° NNE
CZ-2D R/B 3.2 05:54:22 10° NNE 05:59:02 33° E 06:00:29 28° SE
STARLINK-1272 4.0 06:00:22 49° NNE 06:00:22 49° NNE 06:03:05 10° NE
STARLINK-1290 3.9 06:00:25 53° NE 06:00:25 53° NE 06:03:19 10° NE
Cosmos 1703 3.4 06:01:42 73° NNW 06:01:42 73° NNW 06:05:19 10° N
Cosmos 1455 2.8 05:58:20 10° NNW 06:01:16 48° NW 06:01:16 48° NW
CZ-4C R/B 3.2 06:00:10 26° W 06:02:27 38° NW 06:08:01 10° NNE
Meteor 2-10 Rocket 3.4 05:57:28 10° NNW 06:02:30 60° W 06:02:55 58° WSW
USA 81 4.1 06:02:59 57° SW 06:03:49 66° W 06:09:05 10° N
SL-4 R/B 4.0 06:02:04 10° NW 06:06:32 35° NNE 06:10:52 10° E
DELTA 2 DEB (DPAF) 4.4 06:08:18 51° SE 06:09:13 64° ENE 06:13:39 10° N
STARLINK-1029 4.5 06:12:19 33° NE 06:12:19 33° NE 06:14:13 10° NE
SJ 16-02 3.1 06:10:24 10° NW 06:12:52 21° W 06:12:52 21° W
STARLINK-1291 3.8 06:14:05 56° NNW 06:14:05 56° NNW 06:17:34 10° NE
Cosmos 1980 Rocket 2.2 06:12:34 51° SW 06:14:00 75° WNW 06:19:41 10° NNE
STARLINK-34 4.3 06:16:01 36° NNE 06:16:01 36° NNE 06:18:02 10° NE
Meteor 1-29 4.3 06:11:59 10° N 06:14:26 31° NW 06:14:26 31° NW
STARLINK-1264 3.8 06:17:09 54° NW 06:17:10 54° NNW 06:20:45 10° NE
STARLINK-62 4.2 06:18:33 39° NNE 06:18:33 39° NNE 06:20:44 10° NE
STARLINK-1274 3.9 06:18:40 50° NNW 06:18:40 50° NNW 06:22:05 10° NE
Timation 1 Rocket 4.5 06:13:07 10° NNW 06:19:06 72° ENE 06:22:48 24° SE
Meteor 1-11 4.2 06:18:44 48° S 06:20:21 80° E 06:25:57 10° NNE
STARLINK-1267 3.9 06:20:16 50° NW 06:20:25 51° NNW 06:24:01 10° NE
STARLINK-1273 4.4 06:23:02 38° ESE 06:23:02 38° ESE 06:26:28 10° ENE
NOSS 2-1 (E) 4.3 06:24:26 30° E 06:24:26 30° E 06:27:03 10° NE
Cosmos 540 Rocket 3.9 06:23:15 42° WSW 06:24:27 51° WNW 06:29:27 10° N
MOZ.5/SAFIR/RUBIN 5/SL-8 3.8 06:24:01 49° SSE 06:25:15 78° ENE 06:29:55 10° N
STARLINK-1207 4.1 06:26:31 43° NW 06:26:57 45° NNW 06:30:31 10° NE
Cosmos 1758 Rocket 4.5 06:26:51 34° W 06:27:09 35° WNW 06:31:13 10° N
STARLINK-1288 4.2 06:27:49 43° ESE 06:27:49 43° ESE 06:31:29 10° ENE
Cosmos 2181 Rocket 4.1 06:21:08 10° NNW 06:27:33 70° W 06:29:52 41° SSW
STARLINK-1266 4.2 06:29:39 39° WNW 06:30:14 43° NNW 06:33:47 10° NE
STARLINK-64 3.4 06:30:55 68° ENE 06:30:55 68° ENE 06:34:08 10° NE
STARLINK-1308 4.0 06:32:37 49° SE 06:32:37 49° SE 06:36:32 10° ENE
Cosmos 2263 Rocket 2.6 06:28:03 10° NNW 06:33:36 60° ENE 06:38:19 14° SE
STARLINK-1284 4.3 06:32:52 36° WNW 06:33:38 41° NNW 06:37:10 10° NE
Cosmos 2084 Rocket 3.5 06:29:24 10° NW 06:33:50 61° WSW 06:33:57 61° SW
Cosmos 2297 Rocket 4.1 06:32:42 10° WNW 06:35:10 15° W 06:35:10 15° W
Cosmos 1375 Rocket 4.5 06:30:04 10° NW 06:36:38 69° WSW 06:40:03 30° SSE
STARLINK-1258 4.4 06:35:58 33° WNW 06:36:52 39° NNW 06:40:22 10° NE
Cosmos 1400 Rocket 2.7 06:33:13 10° NNW 06:37:20 72° W 06:37:40 67° SW
STARLINK-61 4.3 06:37:53 37° SE 06:37:53 37° SE 06:41:15 10° ENE
USA 215 3.4 06:35:30 33° S 06:38:07 49° SW 06:44:27 10° WNW
Cosmos 2154 Rocket 4.4 06:37:06 26° SSE 06:40:30 57° E 06:46:35 10° NNE
ADEOS II 3.5 06:36:39 10° NE 06:41:17 31° E 06:44:20 18° SE
STARLINK-1304 3.7 06:42:10 58° SSE 06:42:26 59° SE 06:46:31 10° ENE
SL-16 R/B 2.5 06:39:30 29° SSE 06:42:56 89° W 06:49:09 10° NNW
CZ-4B R/B 3.9 06:37:51 10° NNE 06:43:04 60° ESE 06:45:16 34° SSE
STARLINK-1278 3.6 06:42:53 63° S 06:43:24 71° SE 06:47:38 10° NE
NPP 3.7 06:38:50 10° NNE 06:44:15 74° ESE 06:46:25 37° S
STARLINK-1280 3.6 06:44:39 62° SSW 06:45:13 74° SE 06:49:29 10° NE
Cosmos 1953 Rocket 4.2 06:44:45 38° W 06:45:21 41° WNW 06:49:32 10° N
Cosmos-2242 4.2 06:45:46 10° NNW 06:49:17 27° W 06:49:17 27° W
IRS-1D 4.3 06:44:35 10° NNE 06:49:39 47° E 06:52:16 26° SSE
Cosmos 1241 Rocket 4.4 06:47:23 38° SSW 06:49:58 84° ESE 06:56:13 10° NNE
GP-B 3.3 06:45:54 10° N 06:50:16 57° W 06:51:08 47° SW
Cosmos 2322 Rocket 2.6 06:49:46 32° S 06:52:11 55° ESE 06:57:41 10° NNE
Cosmos 2221 2.9 06:48:02 10° N 06:52:22 62° E 06:54:27 29° SSE
Shenzhou-11 Module 3.8 06:55:13 21° E 06:55:13 21° E 06:56:12 10° E
Cosmos 1842 Rocket 3.5 06:51:19 10° N 06:55:49 84° E 06:57:32 37° SSE
ARIANE 5 R/B 4.2 06:53:25 10° NE 06:57:31 25° E 07:01:20 11° SSE
STARLINK-1286 3.5 06:56:53 54° SW 06:57:46 82° SE 07:01:57 10° NE
STARLINK-48 4.0 06:57:12 35° W 06:58:26 51° NNW 07:02:15 10° NE
Cosmos 1408 4.5 06:57:31 17° SE 06:59:24 25° E 07:02:29 10° NE
Cosmos 372 Rocket 4.5 06:56:00 10° NW 07:00:47 40° WSW 07:01:47 36° SW
STARLINK-1281 3.5 07:01:18 50° SW 07:02:19 85° SE 07:06:29 10° NE
Iridium 2 3.5 06:59:54 10° N 07:03:41 90° WSW 07:04:41 48° S
CZ-4C R/B 4.0 07:05:45 40° SW 07:06:31 44° W 07:10:47 10° NNW
STARLINK-1310 3.5 07:06:04 45° SW 07:07:16 87° NW 07:11:26 10° NE
Cosmos 2150 Rocket 4.2 07:02:36 10° NNW 07:07:31 47° WSW 07:09:09 35° SSW
Nadezhda 3 Rocket 4.0 07:01:48 10° N 07:08:10 84° E 07:13:06 18° S
AQUA 3.8 07:03:53 10° N 07:08:40 80° WNW 07:10:39 36° SSW
Resurs 1-4 Rocket 2.4 07:05:30 10° N 07:10:41 55° WNW 07:13:02 31° SW
UNK 4.0 07:09:57 38° SW 07:11:11 48° W 07:15:38 10° NNW
Cosmos 1315 Rocket 2.6 07:08:00 10° NNW 07:11:57 81° W 07:13:24 38° S
STARLINK-1319 3.6 07:10:51 40° WSW 07:12:15 81° NW 07:16:25 10° NE
Meteor 2-2 Rocket 4.3 07:07:06 10° N 07:13:11 90° E 07:17:46 18° S
STARLINK-69 4.3 07:13:01 29° SSE 07:13:30 30° SE 07:16:41 10° ENE
Meteor 1-27 4.4 07:08:14 10° NNW 07:13:37 52° W 07:16:09 30° SSW
Cosmos 2058 3.0 07:12:33 33° S 07:14:20 77° E 07:18:34 10° N
STARLINK-21 4.4 07:14:28 28° SSE 07:14:59 29° SE 07:18:08 10° ENE
STARLINK-45 4.2 07:16:11 31° SSE 07:16:47 33° SE 07:20:03 10° ENE
STARLINK-1277 3.7 07:15:37 36° WSW 07:17:14 74° NW 07:21:23 10° NE
STARLINK-70 4.2 07:17:28 30° SSE 07:18:06 33° SE 07:21:20 10° ENE
Cosmos 2227 4.4 07:13:17 10° NW 07:18:51 51° WSW 07:22:09 24° S
NOSS 2-1 (C) 3.6 07:18:54 35° W 07:19:50 46° NW 07:23:16 10° NNE
STARLINK-76 4.3 07:19:14 29° SSE 07:19:56 32° SE 07:23:11 10° ENE
STARLINK-23 4.2 07:20:43 30° SSE 07:21:27 33° SE 07:24:43 10° ENE
STARLINK-1276 3.8 07:20:25 32° WSW 07:22:14 68° NW 07:26:23 10° NE
STARLINK-32 4.2 07:22:14 30° SSE 07:23:01 34° SE 07:26:18 10° ENE
Cosmos 1125 Rocket 3.6 07:18:24 10° NNW 07:23:30 56° WSW 07:26:34 23° S
GEOS 3 Rocket 3.5 07:18:25 10° SE 07:23:35 85° SW 07:28:53 10° NW
BREEZE-M DEB (TANK) 4.0 07:22:25 15° NW 07:23:35 23° N 07:26:05 10° NE
STARLINK-40 4.2 07:23:51 31° SSE 07:24:42 36° SE 07:28:02 10° ENE
NOSS 2-1 (D) 3.8 07:23:39 30° W 07:24:44 40° NW 07:28:07 10° NNE
USA 229 DEB 3.8 07:17:30 10° NW 07:24:50 75° WSW 07:32:28 10° SSE
USA 229 3.8 07:17:36 10° NW 07:24:56 75° WSW 07:32:34 10° SSE
STARLINK-1306 3.9 07:23:15 28° WSW 07:25:18 62° NNW 07:29:28 10° NE
STARLINK-44 4.1 07:25:20 31° S 07:26:13 37° SE 07:29:34 10° ENE
NOSS 3-1 (C) 4.1 07:18:32 10° NW 07:26:14 69° WSW 07:34:55 10° SSE
Cosmos 1295 Rocket 4.5 07:22:41 23° SSW 07:26:51 82° W 07:33:10 10° N
SL-16 R/B 2.3 07:24:07 27° SW 07:27:11 65° WNW 07:32:51 10° NNE
STARLINK-1305 3.9 07:25:10 28° WSW 07:27:11 63° NNW 07:31:18 10° NE
STARLINK-37 3.9 07:27:09 33° S 07:28:08 42° SE 07:31:33 10° ENE
Cosmos 1844 Rocket 4.2 07:23:12 10° N 07:28:23 36° ENE 07:33:29 10° SE
STARLINK-36 4.0 07:28:21 31° S 07:29:21 39° SE 07:32:43 10° ENE
IRS-P3 4.2 07:26:41 10° NNE 07:32:02 80° ESE 07:35:47 20° S
STARLINK-1262 4.0 07:30:00 25° WSW 07:32:13 58° NNW 07:36:19 10° NE
STARLINK-63 3.8 07:31:46 33° S 07:32:55 45° SE 07:36:22 10° ENE
NOSS 3-1 (A) 4.1 07:26:15 10° NW 07:33:59 88° SW 07:42:47 10° SSE
STARLINK-35 3.8 07:33:14 31° S 07:34:26 45° SE 07:37:52 10° ENE
STARLINK-51 3.8 07:34:49 31° S 07:36:04 47° SE 07:39:31 10° ENE
STARLINK-1300 4.1 07:34:47 22° WSW 07:37:13 54° NNW 07:41:17 10° NE
STARLINK-30 3.7 07:36:23 31° SSW 07:37:41 48° SE 07:41:10 10° ENE
CZ-2D R/B 3.1 07:34:28 10° N 07:39:02 31° WNW 07:41:49 19° WSW
STARLINK-72 3.6 07:37:55 31° SSW 07:39:18 50° SE 07:42:47 10° ENE
STARLINK-1026 4.5 07:37:40 24° S 07:39:34 39° SE 07:43:25 10° ENE
STARLINK-71 3.8 07:39:13 28° SSW 07:41:05 55° SE 07:45:01 10° ENE
STARLINK-1295 4.3 07:39:33 20° W 07:42:12 50° NNW 07:46:15 10° NE
STARLINK-59 3.5 07:41:07 30° SSW 07:42:36 57° SE 07:46:08 10° ENE
Cosmos 2341 Rocket 4.0 07:38:34 17° S 07:43:39 85° W 07:50:01 10° N
STARLINK-56 3.5 07:42:34 29° SSW 07:44:06 56° SE 07:47:37 10° ENE
STARLINK-1013 4.3 07:42:27 24° SSW 07:44:32 43° SE 07:48:28 10° ENE
STARLINK-50 3.6 07:43:33 28° SSW 07:45:18 56° SE 07:49:00 10° ENE
BREEZE-M DEB (TANK) 4.1 07:41:43 18° WSW 07:45:20 79° NNW 08:03:52 10° ENE
IRIDIUM 104 4.5 07:42:20 22° SSW 07:45:40 57° W 07:50:49 10° N
Meteor 1-28 Rocket 3.9 07:42:05 10° SSE 07:45:44 55° ENE 07:49:24 10° N
STARLINK-73 3.4 07:44:09 29° SSW 07:45:45 58° SE 07:49:17 10° ENE
CZ-2D R/B 4.4 07:42:08 10° NNE 07:46:17 47° E 07:50:22 11° S
SL-4 R/B 2.2 07:41:49 10° WNW 07:46:38 74° SW 07:51:11 10° SE
STARLINK-1287 4.4 07:44:19 18° W 07:47:11 46° NNW 07:51:12 10° NE
STARLINK-38 3.4 07:45:42 28° SSW 07:47:21 61° SE 07:50:54 10° ENE
STARLINK-68 3.3 07:45:41 28° SW 07:47:24 66° SE 07:51:02 10° ENE
STARLINK-60 2.8 07:45:21 10° WNW 07:48:30 62° SW 07:51:39 10° SE
STARLINK-65 3.4 07:47:16 28° SSW 07:48:59 63° SE 07:52:32 10° ENE
STARLINK-1009 4.2 07:47:13 23° SSW 07:49:28 47° SE 07:53:27 10° ENE
Cosmos 2360 Rocket 2.2 07:46:14 19° SSW 07:50:20 86° ESE 07:56:00 10° NNE
STARLINK-53 3.3 07:48:54 27° SW 07:50:41 69° SE 07:54:15 10° ENE
SL-08 R/B 3.2 07:46:45 10° SSE 07:51:23 82° WSW 07:56:01 10° NNW
Cosmos 773 Rocket 4.1 07:49:35 17° SSW 07:53:41 80° ESE 07:59:00 10° NNE
STARLINK-1015 4.0 07:52:00 22° SSW 07:54:26 52° SE 07:58:28 10° ENE
Cosmos 1606 4.2 07:52:16 10° N 07:55:47 35° ENE 07:59:17 10° SE
Cosmos 1766 Rocket 4.1 07:53:02 10° S 07:57:17 57° E 08:01:33 10° NNE
H-2A R/B 2.9 07:52:59 10° SSE 07:57:17 56° ENE 08:01:42 10° N
Okean 3 Rocket 3.9 07:53:19 11° S 07:57:35 70° E 08:02:07 10° NNE
Cosmos 1076 Rocket 4.3 07:55:10 21° SW 07:57:35 38° WNW 08:01:41 10° N
Cosmos 1892 3.7 07:56:58 21° WSW 07:58:44 31° WNW 08:02:08 10° NNW
Cosmos 1980 Rocket 4.4 07:56:20 10° WNW 07:59:02 13° NW 08:01:45 10° NNW
STARLINK-1444 2.1 07:56:54 10° WNW 07:59:08 56° SW 08:01:29 10° SE
STARLINK-1016 3.9 07:56:46 21° SSW 07:59:22 57° SE 08:03:27 10° ENE
ERS-2 2.4 07:55:58 10° SSE 07:59:35 71° ENE 08:03:15 10° N
STARLINK-1452 2.1 07:57:32 10° WNW 07:59:46 55° SW 08:02:07 10° SE
STARLINK-1450 2.1 07:58:34 10° WNW 08:00:44 52° SW 08:03:01 10° SE
CZ-2C R/B 3.9 07:57:11 10° NNE 08:00:46 40° E 08:04:23 10° S
STARLINK-1392 2.1 07:58:45 10° WNW 08:00:55 51° SW 08:03:12 10° SE
STARLINK-1415 2.1 07:58:45 10° WNW 08:00:55 51° SW 08:03:13 10° SE
STARLINK-1399 2.1 07:58:46 10° WNW 08:00:56 51° SW 08:03:13 10° SE
STARLINK-1394 2.1 07:58:46 10° WNW 08:00:57 51° SW 08:03:14 10° SE
STARLINK-1395 2.1 07:58:47 10° WNW 08:00:57 51° SW 08:03:14 10° SE
STARLINK-1393 2.1 07:58:47 10° WNW 08:00:57 51° SW 08:03:15 10° SE
STARLINK-1401 2.1 07:58:48 10° WNW 08:00:58 51° SW 08:03:15 10° SE
STARLINK-1396 2.1 07:58:48 10° WNW 08:00:58 51° SW 08:03:15 10° SE
STARLINK-1397 2.1 07:58:48 10° WNW 08:00:58 51° SW 08:03:15 10° SE
STARLINK-1453 2.1 07:58:48 10° WNW 08:00:58 51° SW 08:03:16 10° SE
STARLINK-1404 2.1 07:58:49 10° WNW 08:00:59 51° SW 08:03:17 10° SE
STARLINK-1417 2.1 07:58:51 10° WNW 08:01:00 51° SW 08:03:18 10° SE
STARLINK-1402 2.1 07:58:51 10° WNW 08:01:00 51° SW 08:03:18 10° SE
STARLINK-1413 2.1 07:58:52 10° WNW 08:01:01 51° SW 08:03:19 10° SE
STARLINK-1414 2.1 07:58:50 10° WNW 08:01:02 52° SW 08:03:21 10° SE
STARLINK-1406 2.1 07:58:52 10° WNW 08:01:02 51° SW 08:03:20 10° SE
STARLINK-1416 2.1 07:58:52 10° WNW 08:01:03 52° SW 08:03:23 10° SE
STARLINK-1440 2.1 07:58:54 10° WNW 08:01:04 51° SW 08:03:21 10° SE
STARLINK-1408 2.1 07:58:53 10° WNW 08:01:04 52° SW 08:03:24 10° SE
STARLINK-1445 2.1 07:58:55 10° WNW 08:01:05 51° SW 08:03:22 10° SE
STARLINK-1436 (VISORSAT) 2.1 07:58:53 10° WNW 08:01:05 52° SW 08:03:25 10° SE
STARLINK-1443 2.1 07:58:56 10° WNW 08:01:05 51° SW 08:03:23 10° SE
STARLINK-1454 2.1 07:58:56 10° WNW 08:01:05 51° SW 08:03:23 10° SE
STARLINK-1457 2.1 07:58:57 10° WNW 08:01:06 51° SW 08:03:24 10° SE
STARLINK-1456 2.1 07:58:56 10° WNW 08:01:07 51° SW 08:03:25 10° SE
STARLINK-1451 2.1 07:58:57 10° WNW 08:01:07 51° SW 08:03:25 10° SE
STARLINK-1419 2.1 07:58:55 10° WNW 08:01:07 52° SW 08:03:27 10° SE
STARLINK-1398 2.1 07:58:55 10° WNW 08:01:08 52° SW 08:03:28 10° SE
STARLINK-1442 2.1 07:58:58 10° WNW 08:01:09 51° SW 08:03:26 10° SE
STARLINK-1405 2.1 07:59:01 10° WNW 08:01:11 51° SW 08:03:29 10° SE
STARLINK-1421 2.1 07:59:01 10° WNW 08:01:11 51° SW 08:03:29 10° SE
STARLINK-1422 2.1 07:58:59 10° WNW 08:01:12 52° SW 08:03:32 10° SE
STARLINK-1420 2.1 07:58:59 10° WNW 08:01:12 52° SW 08:03:32 10° SE
STARLINK-1410 2.1 07:59:02 10° WNW 08:01:12 51° SW 08:03:30 10° SE
STARLINK-1400 2.1 07:59:02 10° WNW 08:01:12 51° SW 08:03:30 10° SE
STARLINK-1407 2.1 07:59:03 10° WNW 08:01:13 51° SW 08:03:30 10° SE
STARLINK-1439 2.1 07:59:03 10° WNW 08:01:13 51° SW 08:03:31 10° SE
STARLINK-1409 2.1 07:59:04 10° WNW 08:01:14 51° SW 08:03:31 10° SE
STARLINK-1460 2.1 07:59:01 10° WNW 08:01:14 52° SW 08:03:34 10° SE
STARLINK-1351 2.1 07:59:05 10° WNW 08:01:15 51° SW 08:03:32 10° SE
STARLINK-1370 2.1 07:59:05 10° WNW 08:01:15 51° SW 08:03:32 10° SE
STARLINK-1418 2.1 07:59:05 10° WNW 08:01:15 51° SW 08:03:33 10° SE
STARLINK-1434 2.1 07:59:05 10° WNW 08:01:15 51° SW 08:03:33 10° SE
STARLINK-1403 2.1 07:59:06 10° WNW 08:01:16 51° SW 08:03:34 10° SE
STARLINK-1458 2.1 07:59:04 10° WNW 08:01:16 52° SW 08:03:37 10° SE
Cosmos 2333 Rocket 3.3 07:56:06 10° S 08:01:17 39° ESE 08:06:32 10° NE
STARLINK-1433 2.1 07:59:08 10° WNW 08:01:18 51° SW 08:03:35 10° SE
STARLINK-1438 2.1 07:59:10 10° WNW 08:01:19 51° SW 08:03:37 10° SE
STARLINK-1411 2.1 07:59:09 10° WNW 08:01:19 51° SW 08:03:37 10° SE
STARLINK-1423 2.1 07:59:08 10° WNW 08:01:20 51° SW 08:03:40 10° SE
STARLINK-1446 2.1 07:59:08 10° WNW 08:01:20 52° SW 08:03:41 10° SE
STARLINK-1437 2.1 07:59:10 10° WNW 08:01:21 51° SW 08:03:41 10° SE
STARLINK-1447 2.1 07:59:11 10° WNW 08:01:24 51° SW 08:03:44 10° SE
STARLINK-1455 2.1 07:59:12 10° WNW 08:01:25 51° SW 08:03:45 10° SE
STARLINK-1441 2.1 07:59:13 10° WNW 08:01:25 51° SW 08:03:46 10° SE
STARLINK-1448 2.1 07:59:16 10° WNW 08:01:28 51° SW 08:03:49 10° SE
STARLINK-1449 2.1 07:59:17 10° WNW 08:01:29 51° SW 08:03:50 10° SE
Cosmos 2151 2.9 07:58:01 15° S 08:01:32 83° W 08:05:51 10° N
STARLINK-1412 2.1 07:59:25 10° WNW 08:01:38 51° SW 08:03:59 10° SE
STARLINK-1008 3.8 08:01:34 19° SW 08:04:22 63° SE 08:08:28 10° ENE
STARLINK-24 3.5 08:01:58 20° SW 08:04:43 88° SE 08:08:44 10° NE
SL-8 Rocket 4.0 08:00:18 11° SSW 08:06:18 77° W 08:12:35 10° N
Cosmos 2322 4.0 08:02:01 11° S 08:07:25 65° ESE 08:13:07 10° NNE
Cosmos 2219 Rocket 3.2 08:03:22 10° S 08:08:34 42° ESE 08:13:48 10° NE
Cosmos 2218 Rocket 4.1 08:02:40 10° S 08:09:02 87° W 08:15:30 10° N
STARLINK-1014 3.7 08:06:23 18° SW 08:09:20 69° SE 08:13:26 10° ENE
Lacrosse 5 rocket 3.2 08:10:30 10° S 08:13:35 21° SE 08:16:34 10° ENE
STARLINK-1025 3.6 08:11:08 17° SW 08:14:18 76° SE 08:18:27 10° NE
STARLINK-25 3.2 08:14:07 16° WSW 08:16:43 71° NW 08:20:09 10° NE
Cosmos 2333 4.4 08:11:15 10° SSW 08:16:47 73° ESE 08:22:24 10° NNE
Cosmos 2263 Rocket 3.5 08:13:10 10° WNW 08:16:59 19° W 08:19:55 13° SW
STARLINK-1017 3.6 08:15:54 15° SW 08:19:16 83° SE 08:23:25 10° NE
STARLINK-29 2.8 08:17:38 10° WNW 08:20:48 67° SW 08:23:56 10° SE
ADEOS II 3.0 08:16:16 10° N 08:20:57 34° WNW 08:25:17 12° SW
CZ-2C R/B 4.4 08:16:39 10° NE 08:21:07 28° E 08:25:31 10° SSE
ATLAS 5 CENTAUR R/B 3.8 08:18:20 10° SSE 08:21:08 18° ESE 08:24:03 10° ENE
STARLINK-1023 3.6 08:20:41 14° SW 08:24:14 90° SW 08:28:23 10° NE
IDEFIX/ARIANE 42P 2.6 08:20:50 10° NNE 08:26:08 89° ESE 08:31:22 10° SSW
SL-16 R/B 4.2 08:24:35 10° WSW 08:27:20 13° W 08:30:07 10° WNW
Shenzhou-11 Module 1.5 08:25:51 10° W 08:28:17 77° N 08:30:43 10° E
STARLINK-1007 3.6 08:25:30 12° SW 08:29:15 83° NW 08:33:24 10° NE
STARLINK-81 3.6 08:26:24 12° WSW 08:29:42 60° NW 08:33:17 10° NE
Cosmos 1844 3.8 08:23:53 10° NNW 08:29:44 89° ENE 08:35:31 10° SSE
STARLINK-54 3.8 08:28:09 11° WSW 08:31:35 53° NNW 08:35:08 10° NE
Meteor 2-3 Rocket 4.0 08:26:39 10° S 08:32:12 70° E 08:37:46 10° NNE
STARLINK-77 3.7 08:29:34 11° WSW 08:33:00 56° NW 08:36:35 10° NE
STARLINK-1048 3.7 08:30:16 11° WSW 08:34:13 77° NW 08:38:22 10° NE
Cosmos 1408 4.3 08:31:51 11° WSW 08:34:24 19° WNW 08:37:07 10° NNW
Cosmos 1825 3.3 08:32:28 11° SW 08:35:34 28° WNW 08:38:52 10° NNW
Cosmos 2322 Rocket 3.7 08:32:07 10° WSW 08:36:35 24° NW 08:41:04 10° N
ARIANE 5 R/B 3.2 08:32:06 10° N 08:36:43 38° WNW 08:41:17 10° SW
STARLINK-79 3.8 08:34:23 10° WSW 08:37:55 51° NNW 08:41:28 10° NE
CZ-4B R/B 3.3 08:35:13 10° SE 08:37:58 31° ENE 08:40:49 10° N
STARLINK-1320 4.0 08:35:45 10° NW 08:38:47 48° NNE 08:41:49 10° ESE
STARLINK-1322 4.0 08:36:05 10° NW 08:39:08 48° NNE 08:42:10 10° ESE
STARLINK-1049 3.8 08:35:05 10° WSW 08:39:12 71° NW 08:43:21 10° NE
STARLINK-1324 4.0 08:36:25 10° NW 08:39:27 48° NNE 08:42:29 10° ESE
STARLINK-78 3.9 08:36:00 10° WSW 08:39:31 49° NNW 08:43:03 10° NE
STARLINK-1294 4.0 08:36:41 10° NW 08:39:45 49° NNE 08:42:48 10° ESE
STARLINK-1261 4.0 08:37:06 10° NW 08:40:08 49° NNE 08:43:10 10° ESE
STARLINK-1325 3.9 08:37:26 10° NW 08:40:29 49° NNE 08:43:31 10° ESE
STARLINK-1333 3.9 08:37:48 10° NW 08:40:51 50° NNE 08:43:53 10° ESE
STARLINK-1334 3.9 08:38:06 10° NW 08:41:10 50° NNE 08:44:12 10° ESE
STARLINK-57 4.0 08:37:47 10° WSW 08:41:16 46° NNW 08:44:47 10° NE
STARLINK-1326 3.9 08:38:26 10° NW 08:41:30 50° NNE 08:44:32 10° ESE
STARLINK-1323 3.9 08:38:47 10° NW 08:41:51 51° NE 08:44:53 10° ESE
STARLINK-1349 3.9 08:39:05 10° NW 08:42:09 51° NNE 08:45:11 10° ESE
STARLINK-1336 3.9 08:39:26 10° NW 08:42:30 51° NNE 08:45:33 10° ESE
STARLINK-49 4.0 08:39:17 10° WSW 08:42:47 47° NNW 08:46:17 10° NE
STARLINK-1331 3.8 08:39:48 10° NW 08:42:51 52° NNE 08:45:54 10° ESE
STARLINK-1344 3.8 08:40:07 10° NW 08:43:10 52° NNE 08:46:14 10° ESE
STARLINK-1343 3.8 08:40:28 10° NW 08:43:32 53° NE 08:46:35 10° ESE
STARLINK-1346 3.8 08:40:45 10° NW 08:43:52 53° NNE 08:46:57 10° ESE
STARLINK-1051 3.9 08:40:03 10° WSW 08:44:09 65° NW 08:48:17 10° NE
STARLINK-1328 3.8 08:41:10 10° NW 08:44:14 53° NNE 08:47:18 10° ESE
STARLINK-27 4.0 08:40:56 10° WSW 08:44:25 45° NNW 08:47:54 10° NE
STARLINK-1354 3.8 08:41:29 10° NW 08:44:33 54° NE 08:47:36 10° ESE
STARLINK-1347 3.7 08:41:47 10° NW 08:44:51 54° NE 08:47:55 10° ESE
BREEZE-M R/B 3.3 08:42:20 10° NW 08:45:09 39° NNE 08:47:26 10° E
STARLINK-1357 3.7 08:42:10 10° NW 08:45:15 55° NNE 08:48:18 10° ESE
STARLINK-1335 3.7 08:42:29 10° NW 08:45:34 55° NE 08:48:38 10° ESE
STARLINK-1327 3.7 08:42:50 10° NW 08:45:55 55° NE 08:48:58 10° ESE
STARLINK-74 4.1 08:42:33 10° WSW 08:46:02 44° NNW 08:49:31 10° NE
STARLINK-1340 3.7 08:43:09 10° NW 08:46:14 56° NE 08:49:18 10° ESE
STARLINK-1356 3.7 08:43:30 10° NW 08:46:36 56° NE 08:49:40 10° ESE
STARLINK-1345 3.6 08:43:50 10° NW 08:46:55 57° NE 08:49:59 10° ESE
STARLINK-1355 3.6 08:44:10 10° NW 08:47:15 57° NE 08:50:19 10° ESE
STARLINK-39 4.1 08:44:07 10° WSW 08:47:33 43° NNW 08:51:01 10° NE
STARLINK-1321 3.6 08:44:30 10° NW 08:47:35 57° NE 08:50:40 10° ESE
STARLINK-1358 3.6 08:44:53 10° NW 08:47:58 58° NE 08:51:02 10° ESE
STARLINK-1332 3.6 08:45:11 10° NW 08:48:16 58° NE 08:51:21 10° ESE
Cosmos 1328 Rocket 3.6 08:44:00 10° NNW 08:48:19 58° W 08:52:35 10° S
STARLINK-1348 3.6 08:45:30 10° NW 08:48:35 59° NE 08:51:40 10° ESE
STARLINK-1330 3.6 08:45:51 10° NW 08:48:57 59° NE 08:52:01 10° ESE
STARLINK-31 4.2 08:45:44 10° WSW 08:49:09 41° NNW 08:52:35 10° NE
STARLINK-1363 3.5 08:46:09 10° NW 08:49:15 60° NE 08:52:20 10° ESE
STARLINK-1337 3.5 08:46:32 10° NW 08:49:38 60° NE 08:52:42 10° ESE
STARLINK-1342 3.5 08:46:53 10° NW 08:49:58 61° NE 08:53:03 10° ESE
Cosmos 1680 Rocket 4.2 08:46:17 10° S 08:51:25 56° ESE 08:56:36 10° NNE
